Regional Weather Roundup
Issued by NWS

Home | Current Version | Previous Version | Text Only | Print | Product List | Glossary Off
Versions: 1 2 3 4 5 6 7 8 9 10 11 12 13 14 15 16 17 18 19 20 21 22 23 24 25 26 27 28 29 30 31 32 33 34 35 36 37 38 39 40 41 42 43 44 45 46 47 48 49 50

618
ASUS43 KOAX 281502
RWRNE

WEATHER ROUNDUP FOR NEBRASKA
NATIONAL WEATHER SERVICE OMAHA NE
1000 AM CDT FRI JUL 28 2017

NOTES: SATELLITE DATA IS BEING USED TO AUGMENT CLOUD COVER ABOVE
       12000 FEET.
       "FAIR" INDICATES FEW OR NO CLOUDS BELOW 12,000 FEET WITH NO
       SIGNIFICANT WEATHER AND/OR OBSTRUCTIONS TO VISIBILITY.


NEZ001>004-019>022-054>056-281600-
NEBRASKA PANHANDLE

CITY           SKY/WX    TMP DP  RH WIND       PRES   REMARKS
SCOTTSBLUFF    CLOUDY    70  61  73 CALM      30.11S
ALLIANCE       PTSUNNY   68  62  81 SE9       30.11S
CHADRON        MOSUNNY   69  60  73 NE6       30.10R
GORDON         FAIR      68  62  79 SE5       30.12R
KIMBALL        CLOUDY    66  65  96 CALM      30.17S
SIDNEY         CLOUDY    71  63  75 S12       30.14F
$$

NEZ057>060-069>072-079>082-281600-
SOUTHWEST NEBRASKA

CITY           SKY/WX    TMP DP  RH WIND       PRES   REMARKS
NORTH PLATTE   MOSUNNY   75  64  68 S9        30.10S
IMPERIAL       MOSUNNY   73  64  73 S8        30.11R
LEXINGTON      CLOUDY    73  64  75 SE6       30.11S
MCCOOK         PTSUNNY   74  64  71 S12       30.09R
OGALLALA       CLOUDY    71  65  83 S5        30.11R
$$

NEZ005>010-023>029-035>040-094-281600-
NORTH CENTRAL NEBRASKA

CITY           SKY/WX    TMP DP  RH WIND       PRES   REMARKS
VALENTINE      CLOUDY    78  60  53 S18       30.09S
AINSWORTH      CLOUDY    73  62  68 SE9       30.11S
BROKEN BOW     CLOUDY    70  63  78 SE5       30.13R
O`NEILL        CLOUDY    69  65  85 SE6       30.12S
ORD            MOSUNNY   74  61  63 E5        30.10S
THEDFORD       CLOUDY    73  63  72 S9        30.13S
$$

NEZ041-046>049-061>064-073>077-083>087-281600-
SOUTH CENTRAL NEBRASKA

CITY           SKY/WX    TMP DP  RH WIND       PRES   REMARKS
GRAND ISLAND   MOSUNNY   72  64  76 E5        30.11R
AURORA         CLOUDY    73  64  74 E6        30.10R
HASTINGS       SUNNY     75  61  61 E7        30.11R
HEBRON         SUNNY     76  64  65 E7        30.07R
HOLDREGE       CLOUDY    71  64  78 SE6       30.11R
KEARNEY        SUNNY     73  64  73 E5        30.12R
YORK           MOSUNNY   73  64  73 SE7       30.10R
$$

NEZ011>018-030>034-042>045-281600-
NORTHEAST NEBRASKA

CITY           SKY/WX    TMP DP  RH WIND       PRES   REMARKS
NORFOLK        CLOUDY    73  63  70 E5        30.09R
ALBION         CLOUDY    73  66  76 CALM      30.11R
BLAIR          CLOUDY    74  66  76 E3        30.08S
COLUMBUS       CLOUDY    74  67  78 E6        30.09S
FREMONT        CLOUDY    74  65  74 NE3       30.08S
TEKAMAH        CLOUDY    74  66  76 CALM      30.07S
WAYNE          CLOUDY    74  70  88 E3        30.09F
$$

NEZ050>053-065>068-078-088>093-281600-
SOUTHEAST NEBRASKA

CITY           SKY/WX    TMP DP  RH WIND       PRES   REMARKS
LINCOLN        PTSUNNY   76  64  66 E7        30.07S
OMAHA EPPLEY   CLOUDY    74  66  76 CALM      30.06F
BEATRICE       MOSUNNY   77  66  69 NE9       30.06S
FALLS CITY     SUNNY     77  66  68 E6        30.04R
NEBRASKA CITY  CLOUDY    73  69  87 NE5       30.07R
$$

NEZ044-045-051>053-067-281600-
OMAHA AREA

CITY           SKY/WX    TMP DP  RH WIND       PRES   REMARKS
OMAHA EPPLEY   CLOUDY    74  66  76 CALM      30.06F
BLAIR          CLOUDY    74  66  76 E3        30.08S
FREMONT        CLOUDY    74  65  74 NE3       30.08S
MILLARD        CLOUDY    78  66  66 SE3       30.07S
OFFUTT AFB     MOSUNNY   75  67  75 NE6       30.06S
WAHOO          FAIR      74  66  75 E3        30.08S
$$




USA.gov is the U.S. government's official web portal to all federal, state and local government web resources and services.